Regional Weather Roundup
Issued by NWS

Home | Current Version | Previous Version | Graphics & Text | Print | Product List | Glossary On
Versions: 1 2 3 4 5 6 7 8 9 10 11 12 13 14 15 16 17 18 19 20 21 22 23 24 25 26 27 28 29 30 31 32 33 34 35 36 37 38 39 40 41 42 43 44 45 46 47 48 49 50
000
ASUS45 KSLC 101810
RWRUT

UTAH REGIONAL WEATHER ROUNDUP
NATIONAL WEATHER SERVICE SALT LAKE CITY UT
1200 PM MDT THU JUL 10 2014

UTZ001>011-023>025-101900-

NORTHERN UTAH

CITY           SKY/WX    TMP DP  RH WIND       PRES   REMARKS
HILL AFB       CLOUDY    82  54  38 S10       30.06S
LOGAN          LGT RAIN  78  56  46 S6        30.04S
OGDEN          CLOUDY    83  53  35 S9        30.03S
PROVO AIRPORT  PTSUNNY   82  52  34 CALM      30.05F
SALT LAKE CITY CLOUDY    83  54  36 S12       30.01F
VERNAL         SUNNY     82  50  32 S6        30.08F
WENDOVER       MOSUNNY   86  46  25 SE10      30.01F
HEBER CITY     PTSUNNY   82  46  28 SW10G16   30.11S

$$

UTZ012>022-026-027-101900-

SOUTHERN UTAH

CITY           SKY/WX    TMP DP  RH WIND       PRES   REMARKS
BRYCE CANYON   LGT RAIN  64  50  60 W10       30.29F
CEDAR CITY     CLOUDY    76  54  46 SW12      30.14F
MILFORD        MOSUNNY   86  57  37 S17G25    30.07F
MOAB/CYNLANDS  SUNNY     83  54  36 CALM      30.05F
PRICE          SUNNY     80  53  39 S8        30.15F
ST GEORGE      NOT AVBL

$$

REGIONAL REPORTS     COLORADO/ARIZONA

CITY           SKY/WX    TMP DP  RH WIND       PRES   REMARKS
CRAIG, CO      PTSUNNY   75  50  41 W14       30.17F
GRAND JUNCTION SUNNY     85  49  28 W8        30.08F
RIFLE          MOSUNNY   82  47  29 NW7       30.12F
MONTROSE       SUNNY     85  48  27 N5        30.15F
CORTEZ         SUNNY     83  51  33 SW8       30.18F
PAGE, AZ       SUNNY     88  52  29 S6        30.05F
GRAND CANYON   PTSUNNY   74  54  49 S5        30.25F
KINGMAN        TSTM      72  61  68 SE18G35   30.04R
FLAGSTAFF      MOSUNNY   73  51  46 VRB5      30.27F

$$

REGIONAL REPORTS    NEVADA/IDAHO/WYOMING

CITY           SKY/WX    TMP DP  RH WIND       PRES   REMARKS
LAS VEGAS, NV  LGT RAIN  87  55  33 S3        29.90F
ELY            PTSUNNY   81  46  29 VRB6      30.16F
ELKO           SUNNY     83  48  29 CALM      30.08F
POCATELLO, ID  MOSUNNY   84  48  28 SW12      30.03F
BURLEY         SUNNY     82  55  39 W13       30.00S
EVANSTON, WY   PTSUNNY   69  56  62 SW6       30.22F
ROCK SPRINGS   MOSUNNY   78  46  32 W18G25    30.17S

$$



USA.gov is the U.S. government's official web portal to all federal, state and local government web resources and services.